www.pogodaiklimat.ru

Погода и климат >> Архив погоды >> Пакистан >> Джейкобабад


ПОГОДА в Джейкобабаде

  • Прогноз погоды в Джейкобабаде
  • Монитор погоды в Джейкобабаде

АРХИВ ПОГОДЫ в Джейкобабаде

Время (UTC), дата Ветер
(напр.,м/с)
 
Видим.   Явления Облачность Т
(С)
Тd
(С)
f
(%)
Тe
(С)
Тes
(С)
Комфортность P
(гПа)
Po
(гПа)
Тmin
(С)
Tmax
(С)
R
(мм)
R24
(мм)
S
(см)
03 17.07 СВ 1 4000 м мгла 5/0
[Ac trans]
+31.0 +25.4 72 +45 +50 опасность
перегрева
998.9 992.6 +30.1
06 17.07 СВ 1 4000 м мгла ясно +34.0 +26.5 65 +51 +74 опасность
перегрева
998.9 992.8
09 17.07 СВ 1 4000 м мгла ясно +37.0 +26.0 53 +52 +74 опасность
перегрева
997.0 990.9
12 17.07 СВ 1 4000 м мгла ясно +38.5 +26.2 50 +54 +60 опасность
перегрева
994.7 988.6 +39.1
15 17.07 штиль 0 4000 м мгла ясно +37.0 +28.3 61 +58 +58 опасность
перегрева
995.6 989.5
18 17.07 штиль 0 4000 м мгла 6/4 1050 м
[Sc Ac trans]
+35.0 +27.6 66 +55 +55 опасность
перегрева
997.5 991.4
21 17.07 СВ 1 4000 м мгла {дождь} 10/6 1050 м
[Sc Ac trans]
+30.0 +28.6 92 +51 +51 опасность
перегрева
999.5 1000.0 10
00 18.07 4000 м мгла н/о +30.0 +25.8 78 +45 +45 опасность
перегрева
998.5 992.2
03 18.07 СВ 1 4000 м мгла 6/3 1050 м
[Sc Ac trans]
+30.0 +24.3 72 +42 +45 опасность
перегрева
999.2 992.9 +25.1
06 18.07 СВ 1 4000 м мгла 4/0
[Ac trans]
+33.0 +24.6 61 +46 +63 опасность
перегрева
999.4 993.2
09 18.07 СВ 1 4000 м мгла 4/0
[Ac trans]
+37.5 +25.0 49 +51 +69 опасность
перегрева
997.2 1000.0
12 18.07 штиль 0 4000 м мгла 3/0
[Ac trans]
+39.0 +25.2 46 +52 +58 опасность
перегрева
995.0 988.9 +40.0
15 18.07 штиль 0 4000 м мгла ясно +35.0 +26.8 63 +53 +53 опасность
перегрева
995.7 989.5
18 18.07 штиль 0 4000 м мгла ясно +33.0 +26.1 67 +49 +49 опасность
перегрева
997.6 991.4
21 18.07 штиль 0 4000 м мгла ясно +31.0 +25.4 72 +45 +45 опасность
перегрева
997.2 1000.0
00 19.07 штиль 0 4000 м мгла ясно +30.0 +25.1 75 +43 +43 опасность
перегрева
998.5 992.2
03 19.07 СВ 1 4000 м мгла 3/0
[Ci fib]
+30.0 +25.8 78 +45 +51 опасность
перегрева
1000.2 993.9 +29.5
06 19.07 СВ 1 4000 м мгла ясно +34.5 +25.5 60 +49 +72 опасность
перегрева
1000.1 994.0
09 19.07 СВ 1 4000 м мгла ясно +37.0 +26.0 53 +52 +76 опасность
перегрева
998.1 1000.0
12 19.07 СВ 1 4000 м мгла ясно +37.5 +25.8 51 +52 +58 опасность
перегрева
995.4 989.3 +38.5
15 19.07 штиль 0 4000 м мгла ясно +36.0 +27.9 63 +56 +56 опасность
перегрева
997.6 1000.0
18 19.07 штиль 0 4000 м мгла ясно +34.0 +27.2 68 +53 +53 опасность
перегрева
999.1 993.0
21 19.07 штиль 0 4000 м мгла ясно +32.0 +26.5 73 +49 +49 опасность
перегрева
998.8 1000.0
00 20.07 штиль 0 4000 м мгла 4/4 1050 м
[Sc]
+31.0 +26.1 75 +46 +46 опасность
перегрева
1000.0 993.7
03 20.07 СВ 1 4000 м мгла 5/0
[Ac trans]
+30.5 +25.1 73 +44 +48 опасность
перегрева
1000.7 994.4 +29.0
06 20.07 СВ 1 4000 м мгла 3/0
[Ci fib]
+36.0 +24.9 53 +49 +70 опасность
перегрева
1001.4 995.3
09 20.07 СВ 1 4000 м мгла ясно +38.5 +26.2 50 +54 +78 опасность
перегрева
1000.0 1000.0
12 20.07 СВ 1 4000 м мгла ясно +40.0 +25.6 44 +54 +59 опасность
перегрева
997.5 991.5 +41.0
15 20.07 штиль 0 4000 м мгла 4/0
[Ac trans]
+38.0 +27.2 54 +56 +56 опасность
перегрева
998.6 1000.0
18 20.07 штиль 0 4000 м мгла 3/0
[Ac trans]
+35.0 +25.3 57 +49 +49 опасность
перегрева
999.8 993.7
21 20.07 штиль 0 4000 м мгла 4/0
[Ac trans]
+33.0 +24.6 61 +46 +46 опасность
перегрева
999.1 1000.0
00 21.07 штиль 0 4000 м мгла 4/0
[Ac trans]
+31.0 +25.4 72 +45 +45 опасность
перегрева
998.5 992.2
03 21.07 штиль 0 4000 м мгла 3/0
[Ac trans]
+33.0 +24.6 61 +46 +52 опасность
перегрева
1000.2 994.0 +30.0
06 21.07 СВ 1 4000 м мгла ясно +37.0 +26.0 53 +52 +75 опасность
перегрева
1001.1 995.0
09 21.07 СВ 1 4000 м мгла ясно +39.5 +26.6 48 +55 +79 опасность
перегрева
998.7 1000.0
12 21.07 СВ 1 4000 м мгла ясно +41.5 +25.8 41 +55 +61 опасность
перегрева
996.0 990.0 +43.1
15 21.07 штиль 0 4000 м мгла ясно +39.0 +26.8 50 +55 +55 опасность
перегрева
996.6 1000.0
18 21.07 штиль 0 4000 м мгла ясно +36.0 +26.4 58 +53 +53 опасность
перегрева
998.8 992.7
21 21.07 штиль 0 4000 м мгла ясно +34.0 +25.7 62 +49 +49 опасность
перегрева
997.8 1000.0
00 22.07 штиль 0 4000 м мгла ясно +32.0 +25.0 67 +46 +46 опасность
перегрева
997.2 991.0
03 22.07 штиль 0 4000 м мгла 4/4 1050 м
[Sc]
+32.5 +25.5 67 +47 +52 опасность
перегрева
999.6 993.4 +31.0
06 22.07 штиль 0 4000 м мгла ясно +39.0 +26.0 48 +54 +80 опасность
перегрева
999.5 993.4
09 22.07 СВ 1 4000 м мгла ясно +40.5 +25.4 43 +54 +76 опасность
перегрева
996.2 990.1
12 22.07 СВ 1 4000 м мгла ясно +39.5 +26.6 48 +55 +61 опасность
перегрева
993.5 987.5 +42.0
15 22.07 штиль 0 4000 м мгла 4/0
[Ac trans]
+36.0 +26.4 58 +53 +53 опасность
перегрева
995.8 1000.0
18 22.07 штиль 0 4000 м мгла 5/3 1200 м
[Sc Ac trans]
+34.0 +25.7 62 +49 +49 опасность
перегрева
998.4 992.3
21 22.07 СВ 1 4000 м в посл. час дождь 8/4 1200 м
[Sc Ac trans]
+33.0 +24.6 61 +46 +46 опасность
перегрева
997.6 1000.0 8
00 23.07 штиль 0 4000 м мгла 4/0
[Ac trans]
+30.0 +25.8 78 +45 +45 опасность
перегрева
997.0 990.7
03 23.07 штиль 0 4000 м мгла ясно +33.0 +26.8 70 +51 +58 опасность
перегрева
998.4 992.2 +29.0
06 23.07 штиль 0 4000 м мгла ясно +38.0 +27.2 54 +56 +82 опасность
перегрева
998.4 992.3
09 23.07 штиль 0 4000 м мгла ясно +40.0 +26.4 47 +56 +81 опасность
перегрева
997.1 991.0
12 23.07 штиль 0 4000 м мгла ясно +40.5 +27.0 47 +57 +64 опасность
перегрева
994.5 988.5 +42.0
15 23.07 штиль 0 4000 м мгла ясно +38.0 +24.0 45 +49 +49 опасность
перегрева
995.5 1000.0
18 23.07 СВ 1 4000 м мгла ясно +35.0 +24.5 55 +48 +48 опасность
перегрева
997.5 991.4
21 23.07 СВ 1 4000 м мгла ясно +33.0 +24.6 61 +46 +46 опасность
перегрева
996.7 990.5

 

Местоположение метеостанции Джейкобабад (Пакистан): широта 28.30 долгота 68.47 высота над уровнем моря 56 м.

В архиве по умолчанию представлена погода в Джейкобабаде за последнюю неделю. Архивные данные за месяц целиком и за предыдущие месяцы, начиная с января 2011 года, Вы можете получить, выбрав интересующий диапазон дат из раскрывающегося списка и нажав кнопку "Ввод!".


*Определитесь, кто Вы:
робот инопланетянин человек

Внимание! Время в таблицах - всемирное. Для получения местного времени необходимо прибавить поправку, которая равна 5 ч.

Смотрите также архив погоды в соседних городах и на ближайших метеорологических станциях:

Погода в Суккуре (Пакистан) (72 км)
Погода в Рохри (Пакистан) (82 км)
Погода в Ларкане (Пакистан) (88 км)
Погода в Мохенджо-Даро (Пакистан) (114 км)
Погода в Сиби (Пакистан) (150 км)
Погода в Пад Идан (Пакистан) (165 км)
Погода в Рахим Яр Хан (Пакистан) (182 км)
Погода в Хуздаре (Пакистан) (188 км)
Погода в Калате (Пакистан) (202 км)
Погода в Бархане (Пакистан) (214 км)

Пояснения к столбцам:

Ветер - указаны скорость ветра в м/с - средняя за 10 мин, порывы в срок и между сроками (в фигурных скобках) и направление, откуда дует ветер: С - северный, СВ - северо-восточный, В - восточный, ЮВ - юго-восточный, Ю - южный, ЮЗ - юго-западный, З - западный, СЗ - северо-западный.
Видимость - горизонтальная дальность видимости в метрах или километрах. При видимости от 1 до 10 км при отсутствии осадков обычно наблюдается дымка, при ухудшении видимости до 1 км и менее - туман. В сухую погоду видимость может ухудшаться дымом, пылью или мглою.
Явления - указаны атмосферные явления, наблюдавшиеся в срок или в последний час перед сроком; фигурными скобками обозначены явления, наблюдавшиеся между сроками (за 1-3 часа до срока); квадратными скобками обозначены град или гололедные отложения с указанием их диаметра в мм.
Облачность - указаны через наклонную черту общая и нижняя облачность в баллах и высота нижней границы облаков в метрах; квадратными скобками обозначены формы облаков: Ci - перистые, Cs - перисто-слоистые, Cc - перисто-кучевые, Ac - высококучевые, As - высокослоистые, Sc - слоисто-кучевые, Ns - слоисто-дождевые, Cu - кучевые, Cb - кучево-дождевые. Подробнее классификацию облаков см. в Атласе облаков (PDF).
T - Температура воздуха - температура, измеренная на высоте 2 м над землей.
Td - Температура точки росы - температура, при понижении до которой содержащийся в воздухе водяной пар достигнет насыщения.
f - Относительная влажность воздуха - влажноcть воздуха, измеренная на высоте 2 м над землей.
Te - Эффективная температура - температура, которую ощущает одетый по сезону человек в тени. Характеристика душности погоды. При расчете учитывается влияние влажности воздуха и скорости ветра на теплоощущения человека.
Tes - Эффективная температура на солнце - температура, которую ощущает человек, с поправкой на солнечный нагрев. Характеристика знойности погоды. Зависит от высоты солнца над горизонтом, облачности и скорости ветра. Ночью, в пасмурную погоду, а также при ветре 12 м/с и более поправка равна нулю.
P - Атмосферное давление - приведенное к уровню моря атмосферное давление.
Po - Атмосферное давление - измеренное на уровне метеостанции атмосферное давление.
Tmin - Минимальная температура - минимум температуры воздуха на высоте 2 м над землей.
Tmax - Максимальная температура - максимум температуры воздуха на высоте 2 м над землей.
R - Количество осадков - Количество выпавших осадков за период времени, мм. При наведении курсора мыши на число - период времени, за который выпало указанное количество осадков.
R24 - Количество осадков - Количество выпавших осадков за 24 часа, мм.
S - Снежный покров - Высота снежного покрова, см. При наведении курсора мыши на число - состояние снежного покрова и степень покрытия местности в баллах.